TimeEDT,TemperatureF,Dew PointF,Humidity,Sea Level PressureIn,VisibilityMPH,Wind Direction,Wind SpeedMPH,Gust SpeedMPH,PrecipitationIn,Events,Conditions,WindDirDegrees,DateUTC
12:15 AM,44.6,44.6,100,29.61,4.0,West,16.1,23.0,0.02,Rain,Heavy Rain,260,2013-04-12 04:15:00
12:35 AM,42.8,42.8,100,29.60,5.0,West,13.8,19.6,0.02,,Drizzle,280,2013-04-12 04:35:00
12:55 AM,42.8,42.8,100,29.60,7.0,West,16.1,21.9,0.02,Rain,Light Rain,270,2013-04-12 04:55:00
1:15 AM,42.8,41.0,93,29.61,10.0,West,11.5,19.6,N/A,,Overcast,270,2013-04-12 05:15:00
1:35 AM,42.8,39.2,87,29.62,10.0,West,12.7,19.6,N/A,,Overcast,270,2013-04-12 05:35:00
1:55 AM,42.8,39.2,87,29.62,10.0,West,15.0,23.0,N/A,,Overcast,270,2013-04-12 05:55:00
2:15 AM,41.0,37.4,87,29.62,10.0,West,12.7,-,N/A,,Overcast,270,2013-04-12 06:15:00
2:35 AM,41.0,37.4,87,29.63,7.0,West,17.3,21.9,N/A,,Overcast,260,2013-04-12 06:35:00
2:55 AM,41.0,35.6,81,29.63,10.0,West,15.0,18.4,N/A,,Overcast,270,2013-04-12 06:55:00
3:15 AM,39.2,35.6,87,29.63,10.0,West,11.5,20.7,N/A,,Overcast,270,2013-04-12 07:15:00
3:35 AM,39.2,35.6,87,29.62,10.0,West,13.8,-,N/A,,Overcast,260,2013-04-12 07:35:00
3:55 AM,39.2,35.6,87,29.61,10.0,West,13.8,-,N/A,,Overcast,270,2013-04-12 07:55:00
4:15 AM,39.2,33.8,81,29.61,10.0,West,19.6,25.3,N/A,,Overcast,260,2013-04-12 08:15:00
4:35 AM,37.4,33.8,87,29.62,10.0,West,13.8,21.9,N/A,,Overcast,270,2013-04-12 08:35:00
4:55 AM,37.4,32.0,81,29.63,10.0,West,15.0,24.2,N/A,,Overcast,270,2013-04-12 08:55:00
5:15 AM,37.4,33.8,87,29.63,10.0,West,12.7,18.4,N/A,,Overcast,280,2013-04-12 09:15:00
5:35 AM,37.4,33.8,87,29.63,10.0,West,15.0,20.7,N/A,,Overcast,260,2013-04-12 09:35:00
5:55 AM,37.4,33.8,87,29.63,10.0,West,11.5,18.4,N/A,,Overcast,260,2013-04-12 09:55:00
6:15 AM,37.4,33.8,87,29.64,10.0,WSW,15.0,-,N/A,,Overcast,250,2013-04-12 10:15:00
6:35 AM,37.4,33.8,87,29.64,10.0,WSW,13.8,-,N/A,,Overcast,240,2013-04-12 10:35:00
6:55 AM,37.4,32.0,81,29.65,10.0,West,13.8,-,N/A,,Overcast,260,2013-04-12 10:55:00
7:15 AM,37.4,32.0,81,29.66,10.0,WSW,15.0,19.6,N/A,,Overcast,240,2013-04-12 11:15:00
7:35 AM,35.6,32.0,87,29.66,10.0,WSW,16.1,21.9,N/A,,Overcast,240,2013-04-12 11:35:00
7:55 AM,35.6,32.0,87,29.67,10.0,WSW,11.5,-,N/A,,Overcast,240,2013-04-12 11:55:00
8:15 AM,35.6,32.0,87,29.68,10.0,WSW,16.1,-,N/A,,Overcast,240,2013-04-12 12:15:00
8:35 AM,35.6,32.0,87,29.68,10.0,WSW,16.1,21.9,N/A,,Overcast,240,2013-04-12 12:35:00
8:55 AM,35.6,32.0,87,29.69,10.0,SW,12.7,18.4,N/A,,Overcast,230,2013-04-12 12:55:00
9:15 AM,35.6,32.0,87,29.69,10.0,WSW,16.1,21.9,N/A,,Overcast,240,2013-04-12 13:15:00
9:35 AM,35.6,32.0,87,29.69,10.0,WSW,15.0,-,N/A,,Overcast,240,2013-04-12 13:35:00
9:55 AM,37.4,32.0,81,29.69,10.0,SW,17.3,-,N/A,,Overcast,230,2013-04-12 13:55:00
10:15 AM,37.4,32.0,81,29.69,10.0,SW,18.4,-,N/A,,Overcast,230,2013-04-12 14:15:00
10:35 AM,37.4,32.0,81,29.69,10.0,SW,15.0,-,N/A,,Overcast,230,2013-04-12 14:35:00
10:55 AM,37.4,32.0,81,29.69,10.0,SW,17.3,23.0,N/A,,Overcast,230,2013-04-12 14:55:00
11:15 AM,37.4,32.0,81,29.70,10.0,SW,16.1,20.7,N/A,,Overcast,230,2013-04-12 15:15:00
11:35 AM,37.4,32.0,81,29.70,10.0,WSW,13.8,-,N/A,,Overcast,240,2013-04-12 15:35:00
11:55 AM,39.2,32.0,75,29.71,10.0,SW,15.0,-,N/A,,Overcast,230,2013-04-12 15:55:00
12:15 PM,39.2,32.0,75,29.71,10.0,WSW,16.1,20.7,N/A,,Overcast,240,2013-04-12 16:15:00
12:35 PM,39.2,32.0,75,29.72,10.0,WSW,19.6,24.2,N/A,,Overcast,240,2013-04-12 16:35:00
12:55 PM,39.2,33.8,81,29.72,10.0,WSW,12.7,17.3,N/A,Rain,Light Rain,250,2013-04-12 16:55:00
1:15 PM,41.0,32.0,70,29.72,10.0,WSW,18.4,28.8,N/A,,Overcast,250,2013-04-12 17:15:00
1:35 PM,41.0,32.0,70,29.73,10.0,WSW,20.7,27.6,N/A,,Overcast,250,2013-04-12 17:35:00
1:55 PM,41.0,32.0,70,29.73,10.0,WSW,20.7,29.9,N/A,,Overcast,240,2013-04-12 17:55:00
2:15 PM,41.0,32.0,70,29.74,10.0,WSW,21.9,27.6,N/A,,Overcast,240,2013-04-12 18:15:00
2:35 PM,41.0,33.8,76,29.74,10.0,WSW,19.6,27.6,N/A,,Overcast,240,2013-04-12 18:35:00
2:55 PM,41.0,32.0,70,29.75,10.0,SW,18.4,25.3,N/A,,Overcast,230,2013-04-12 18:55:00
3:15 PM,41.0,33.8,76,29.76,10.0,SW,20.7,26.5,N/A,,Overcast,230,2013-04-12 19:15:00
3:35 PM,41.0,33.8,76,29.77,10.0,SW,19.6,24.2,N/A,,Overcast,220,2013-04-12 19:35:00
3:55 PM,37.4,35.6,93,29.78,4.0,WSW,18.4,23.0,N/A,,Heavy Drizzle,240,2013-04-12 19:55:00
4:15 PM,39.2,35.6,87,29.78,7.0,WSW,18.4,-,N/A,,Overcast,250,2013-04-12 20:15:00
4:35 PM,41.0,35.6,81,29.78,10.0,WSW,19.6,25.3,N/A,,Overcast,240,2013-04-12 20:35:00
4:55 PM,41.0,35.6,81,29.79,10.0,SW,16.1,-,N/A,,Overcast,230,2013-04-12 20:55:00
5:15 PM,41.0,35.6,81,29.79,10.0,SW,16.1,24.2,N/A,,Overcast,220,2013-04-12 21:15:00
5:35 PM,41.0,35.6,81,29.80,10.0,WSW,21.9,28.8,N/A,,Overcast,250,2013-04-12 21:35:00
5:55 PM,41.0,33.8,76,29.81,10.0,WSW,19.6,33.4,N/A,,Overcast,250,2013-04-12 21:55:00
6:15 PM,41.0,33.8,76,29.82,10.0,WSW,25.3,33.4,N/A,,Overcast,240,2013-04-12 22:15:00
6:35 PM,41.0,35.6,81,29.83,7.0,WSW,20.7,27.6,N/A,,Overcast,240,2013-04-12 22:35:00
6:55 PM,41.0,35.6,81,29.83,10.0,WSW,20.7,25.3,N/A,,Overcast,240,2013-04-12 22:55:00
7:15 PM,41.0,35.6,81,29.84,10.0,West,20.7,26.5,N/A,,Overcast,260,2013-04-12 23:15:00
7:35 PM,41.0,33.8,76,29.84,10.0,West,20.7,28.8,N/A,,Overcast,260,2013-04-12 23:35:00
7:55 PM,41.0,33.8,76,29.84,10.0,West,23.0,26.5,N/A,,Overcast,260,2013-04-12 23:55:00
8:15 PM,39.2,33.8,81,29.85,10.0,WSW,19.6,24.2,N/A,,Overcast,240,2013-04-13 00:15:00
8:35 PM,39.2,33.8,81,29.85,10.0,WSW,20.7,29.9,N/A,,Overcast,250,2013-04-13 00:35:00
8:55 PM,39.2,33.8,81,29.86,10.0,WSW,17.3,27.6,N/A,,Overcast,250,2013-04-13 00:55:00
9:15 PM,39.2,35.6,87,29.86,5.0,WSW,18.4,-,N/A,,Drizzle,250,2013-04-13 01:15:00
9:35 PM,37.4,35.6,93,29.87,5.0,West,18.4,29.9,N/A,,Light Drizzle,260,2013-04-13 01:35:00
9:55 PM,37.4,35.6,93,29.88,7.0,West,15.0,24.2,N/A,,Overcast,260,2013-04-13 01:55:00
10:15 PM,37.4,33.8,87,29.88,10.0,West,18.4,24.2,N/A,,Overcast,260,2013-04-13 02:15:00
10:35 PM,37.4,33.8,87,29.89,10.0,WSW,13.8,23.0,N/A,,Overcast,250,2013-04-13 02:35:00
10:55 PM,37.4,35.6,93,29.89,10.0,WSW,12.7,-,N/A,,Overcast,250,2013-04-13 02:55:00
11:15 PM,37.4,33.8,87,29.89,10.0,WSW,11.5,-,N/A,,Overcast,250,2013-04-13 03:15:00
11:35 PM,37.4,33.8,87,29.90,10.0,WSW,12.7,17.3,N/A,,Overcast,250,2013-04-13 03:35:00
11:55 PM,37.4,33.8,87,29.90,10.0,WSW,11.5,-,N/A,,Overcast,250,2013-04-13 03:55:00